TimeEDT,TemperatureF,Dew PointF,Humidity,Sea Level PressureIn,VisibilityMPH,Wind Direction,Wind SpeedMPH,Gust SpeedMPH,PrecipitationIn,Events,Conditions,WindDirDegrees,DateUTC
12:14 AM,60.8,57.2,88,29.87,10.0,East,6.9,-,N/A,,Overcast,100,2013-06-11 04:14:00
12:35 AM,60.8,59.0,94,29.87,10.0,East,5.8,-,N/A,,Overcast,90,2013-06-11 04:35:00
12:54 AM,60.8,59.0,94,29.86,10.0,East,4.6,-,N/A,,Overcast,90,2013-06-11 04:54:00
1:15 AM,60.8,59.0,94,29.87,10.0,Calm,Calm,-,N/A,,Overcast,0,2013-06-11 05:15:00
1:35 AM,60.8,59.0,94,29.86,10.0,ESE,4.6,-,N/A,,Overcast,110,2013-06-11 05:35:00
1:55 AM,60.8,59.0,94,29.86,10.0,SE,3.5,-,N/A,,Overcast,140,2013-06-11 05:55:00
2:14 AM,60.8,59.0,94,29.86,10.0,SE,5.8,-,N/A,,Overcast,130,2013-06-11 06:14:00
2:35 AM,60.8,59.0,94,29.86,10.0,Calm,Calm,-,N/A,,Overcast,0,2013-06-11 06:35:00
2:54 AM,60.8,59.0,94,29.86,10.0,Calm,Calm,-,N/A,,Overcast,0,2013-06-11 06:54:00
3:14 AM,60.8,59.0,94,29.85,10.0,Calm,Calm,-,N/A,,Overcast,0,2013-06-11 07:14:00
3:35 AM,60.8,59.0,94,29.85,10.0,Calm,Calm,-,N/A,,Overcast,0,2013-06-11 07:35:00
3:54 AM,60.8,59.0,94,29.85,10.0,Calm,Calm,-,N/A,,Overcast,0,2013-06-11 07:54:00
4:15 AM,60.8,59.0,94,29.85,10.0,Calm,Calm,-,N/A,,Overcast,0,2013-06-11 08:15:00
4:35 AM,60.8,59.0,94,29.86,10.0,Calm,Calm,-,N/A,,Overcast,0,2013-06-11 08:35:00
4:54 AM,60.8,59.0,94,29.86,10.0,Calm,Calm,-,N/A,,Overcast,0,2013-06-11 08:54:00
5:15 AM,60.8,59.0,94,29.87,10.0,Calm,Calm,-,N/A,,Overcast,0,2013-06-11 09:15:00
5:35 AM,60.8,59.0,94,29.87,10.0,South,3.5,-,N/A,,Overcast,190,2013-06-11 09:35:00
5:54 AM,60.8,59.0,94,29.87,10.0,SSW,5.8,-,N/A,,Overcast,210,2013-06-11 09:54:00
6:15 AM,60.8,57.2,88,29.86,10.0,Calm,Calm,-,N/A,,Overcast,0,2013-06-11 10:15:00
6:35 AM,60.8,59.0,94,29.87,10.0,Calm,Calm,-,N/A,,Overcast,0,2013-06-11 10:35:00
6:54 AM,60.8,59.0,94,29.87,10.0,South,3.5,-,N/A,,Overcast,170,2013-06-11 10:54:00
7:15 AM,60.8,59.0,94,29.87,10.0,SE,3.5,-,N/A,,Overcast,140,2013-06-11 11:15:00
7:34 AM,60.8,57.2,88,29.88,10.0,South,3.5,-,N/A,,Overcast,180,2013-06-11 11:34:00
7:54 AM,60.8,59.0,94,29.88,10.0,SSE,3.5,-,N/A,,Overcast,160,2013-06-11 11:54:00
8:15 AM,60.8,59.0,94,29.88,10.0,Calm,Calm,-,N/A,,Overcast,0,2013-06-11 12:15:00
8:34 AM,60.8,59.0,94,29.89,10.0,SSW,3.5,-,N/A,,Overcast,200,2013-06-11 12:34:00
8:55 AM,62.6,59.0,88,29.89,10.0,South,3.5,-,N/A,,Overcast,180,2013-06-11 12:55:00
9:15 AM,62.6,59.0,88,29.89,10.0,South,3.5,-,N/A,,Overcast,170,2013-06-11 13:15:00
9:34 AM,62.6,59.0,88,29.88,7.0,South,4.6,-,N/A,,Overcast,180,2013-06-11 13:34:00
9:55 AM,62.6,60.8,94,29.88,10.0,Calm,Calm,-,N/A,,Overcast,0,2013-06-11 13:55:00
10:15 AM,62.6,60.8,94,29.88,10.0,South,5.8,-,N/A,,Overcast,190,2013-06-11 14:15:00
10:34 AM,62.6,60.8,94,29.87,10.0,South,3.5,-,N/A,,Overcast,170,2013-06-11 14:34:00
10:55 AM,62.6,60.8,94,29.87,10.0,SW,5.8,-,N/A,,Overcast,220,2013-06-11 14:55:00
11:14 AM,64.4,60.8,88,29.87,10.0,SSW,8.1,-,N/A,,Overcast,200,2013-06-11 15:14:00
11:34 AM,64.4,60.8,88,29.86,10.0,SSW,6.9,-,N/A,,Overcast,200,2013-06-11 15:34:00
11:55 AM,64.4,60.8,88,29.86,10.0,South,8.1,-,N/A,,Overcast,190,2013-06-11 15:55:00
12:14 PM,64.4,60.8,88,29.86,10.0,South,6.9,-,N/A,Rain,Light Rain,170,2013-06-11 16:14:00
12:34 PM,64.4,60.8,88,29.86,10.0,South,9.2,-,N/A,,Overcast,180,2013-06-11 16:34:00
12:54 PM,66.2,60.8,83,29.85,10.0,SSE,9.2,-,N/A,,Overcast,160,2013-06-11 16:54:00
1:14 PM,66.2,60.8,83,29.85,10.0,South,8.1,-,N/A,,Overcast,170,2013-06-11 17:14:00
1:35 PM,66.2,60.8,83,29.85,10.0,SSE,4.6,-,N/A,,Overcast,160,2013-06-11 17:35:00
1:54 PM,66.2,60.8,83,29.85,10.0,SSW,9.2,-,N/A,,Mostly Cloudy,200,2013-06-11 17:54:00
2:15 PM,66.2,60.8,83,29.85,10.0,SSW,6.9,-,N/A,,Overcast,210,2013-06-11 18:15:00
2:34 PM,66.2,60.8,83,29.86,10.0,SW,5.8,-,N/A,,Overcast,230,2013-06-11 18:34:00
2:54 PM,66.2,60.8,83,29.85,10.0,SSW,5.8,-,N/A,,Overcast,210,2013-06-11 18:54:00
3:15 PM,66.2,60.8,83,29.85,10.0,Calm,Calm,-,N/A,,Overcast,0,2013-06-11 19:15:00
3:34 PM,68.0,62.6,83,29.85,10.0,Calm,Calm,-,N/A,,Mostly Cloudy,0,2013-06-11 19:34:00
3:55 PM,69.8,62.6,78,29.84,10.0,Calm,Calm,-,N/A,,Scattered Clouds,0,2013-06-11 19:55:00
4:15 PM,69.8,62.6,78,29.84,10.0,Calm,Calm,-,N/A,,Scattered Clouds,0,2013-06-11 20:15:00
4:34 PM,69.8,62.6,78,29.84,10.0,Calm,Calm,-,N/A,,Mostly Cloudy,0,2013-06-11 20:34:00
4:55 PM,71.6,62.6,73,29.84,10.0,SE,3.5,-,N/A,,Scattered Clouds,140,2013-06-11 20:55:00
5:15 PM,71.6,62.6,73,29.83,10.0,Calm,Calm,-,N/A,,Mostly Cloudy,0,2013-06-11 21:15:00
5:34 PM,69.8,62.6,78,29.84,10.0,Calm,Calm,-,N/A,,Mostly Cloudy,0,2013-06-11 21:34:00
5:55 PM,69.8,62.6,78,29.84,10.0,Calm,Calm,-,N/A,,Mostly Cloudy,0,2013-06-11 21:55:00
6:14 PM,71.6,64.4,78,29.84,10.0,SSE,3.5,-,N/A,,Scattered Clouds,150,2013-06-11 22:14:00
6:34 PM,71.6,64.4,78,29.83,10.0,Calm,Calm,-,N/A,,Scattered Clouds,0,2013-06-11 22:34:00
6:55 PM,71.6,62.6,73,29.83,10.0,Calm,Calm,-,N/A,,Mostly Cloudy,0,2013-06-11 22:55:00
7:14 PM,71.6,62.6,73,29.83,10.0,NE,3.5,-,N/A,,Mostly Cloudy,50,2013-06-11 23:14:00
7:35 PM,71.6,62.6,73,29.83,10.0,Calm,Calm,-,N/A,,Scattered Clouds,0,2013-06-11 23:35:00
7:54 PM,71.6,62.6,73,29.84,10.0,Calm,Calm,-,N/A,,Mostly Cloudy,0,2013-06-11 23:54:00
8:15 PM,69.8,62.6,78,29.85,10.0,WNW,6.9,-,N/A,,Scattered Clouds,300,2013-06-12 00:15:00
8:34 PM,68.0,60.8,78,29.85,10.0,NNW,4.6,-,N/A,,Scattered Clouds,340,2013-06-12 00:34:00
8:55 PM,66.2,60.8,83,29.86,10.0,Calm,Calm,-,N/A,,Scattered Clouds,0,2013-06-12 00:55:00
9:15 PM,66.2,60.8,83,29.86,10.0,Calm,Calm,-,N/A,,Clear,0,2013-06-12 01:15:00
9:34 PM,64.4,60.8,88,29.86,10.0,North,4.6,-,N/A,,Scattered Clouds,360,2013-06-12 01:34:00
9:55 PM,64.4,59.0,83,29.87,10.0,NNW,4.6,-,N/A,,Scattered Clouds,340,2013-06-12 01:55:00
10:15 PM,60.8,57.2,88,29.89,10.0,North,4.6,-,N/A,,Clear,350,2013-06-12 02:15:00
10:34 PM,60.8,57.2,88,29.89,10.0,North,4.6,-,N/A,,Clear,350,2013-06-12 02:34:00
10:55 PM,59.0,57.2,94,29.90,10.0,North,4.6,-,N/A,,Clear,350,2013-06-12 02:55:00
11:14 PM,57.2,55.4,94,29.90,10.0,Calm,Calm,-,N/A,,Clear,0,2013-06-12 03:14:00
11:35 PM,57.2,55.4,94,29.90,7.0,Calm,Calm,-,N/A,,Clear,0,2013-06-12 03:35:00
11:55 PM,55.4,53.6,94,29.90,5.0,Calm,Calm,-,N/A,,Clear,0,2013-06-12 03:55:00